Regional Weather Roundup
Issued by NWS

Home | Current Version | Previous Version | Graphics & Text | Print | Product List | Glossary On
Versions: 1 2 3 4 5 6 7 8 9 10 11 12 13 14 15 16 17 18 19 20 21 22 23 24 25 26 27 28 29 30 31 32 33 34 35 36 37 38 39 40 41 42 43 44 45 46 47 48 49 50
000
ASUS45 KSLC 101110
RWRUT

UTAH REGIONAL WEATHER ROUNDUP
NATIONAL WEATHER SERVICE SALT LAKE CITY UT
400 AM MST SAT DEC 10 2016

UTZ001>011-023>025-101200-

NORTHERN UTAH

CITY           SKY/WX    TMP DP  RH WIND       PRES   REMARKS
BRIGHAM CITY     N/A     34  31  88 CALM      30.01R
HILL AFB       MIX PCPN  41  30  65 W7        29.99F
LOGAN          MIX PCPN  34  32  92 NE6       29.98S WCI  29
OGDEN          LGT RAIN  40  30  67 W10G18    29.98F WCI  33
SALT LAKE CITY CLOUDY    37  31  78 NW12      29.98S WCI  29
WENDOVER       CLOUDY    28  21  74 NE8       29.96F WCI  20
HEBER CITY     CLOUDY    37  28  70 E3        30.00F

$$

UTZ011>015-024>027-101200-

CENTRAL/NORTHEAST UTAH

CITY           SKY/WX    TMP DP  RH WIND       PRES   REMARKS
PROVO AIRPORT  CLOUDY    35  28  75 SE3       30.02F
MOAB/CANYONLAN PTCLDY    22  11  62 CALM      30.18F
DELTA          CLOUDY    41  34  75 S17G29    30.04F
PRICE          MOCLDY    21  14  74 CALM      30.15F
ROOSEVELT      CLOUDY    18  12  79 W5        30.14F WCI  11
VERNAL         CLOUDY    16  11  80 N5        30.13S WCI   9

$$

UTZ013>016-019>022-027-101200-

SOUTHERN UTAH

CITY           SKY/WX    TMP DP  RH WIND       PRES   REMARKS
BRYCE CANYON   CLEAR     14  10  84 SW5       30.19F WCI   6
CEDAR CITY     PTCLDY    27  24  89 E7        30.14F WCI  19
MILFORD        MOCLDY    41  34  76 S26G35    30.10F
ST GEORGE      CLOUDY    41  27  56 CALM      30.21F
HANKSVILLE     MOCLDY    19  10  68 CALM      30.23F
BLANDING       CLEAR     29  23  78 CALM      30.29F

$$

REGIONAL REPORTS     COLORADO/ARIZONA

CITY           SKY/WX    TMP DP  RH WIND       PRES   REMARKS
CRAIG, CO      CLOUDY    27  22  81 E7        30.07F WCI  19
GRAND JUNCTION CLOUDY    24  19  81 CALM      30.18F
RIFLE, CO      CLOUDY    22  21  96 CALM      30.19F
MONTROSE, CO   CLOUDY    23  21  92 SE7       30.21F WCI  15
CORTEZ, CO     CLOUDY    22  19  89 E6        30.24S WCI  14
COLORADO CITY  PTSUNNY   28  28 100 CALM      30.24S
PAGE, AZ       PTCLDY    34  17  50 SW5       30.20F WCI  30
GRAND CANYON   PTCLDY    22  21  96 E3        30.24F
KINGMAN, AZ    CLEAR     34  30  85 CALM      30.17F
FLAGSTAFF, AZ  CLEAR     24  23  96 NW5       30.25F WCI  18

$$

REGIONAL REPORTS    NEVADA/IDAHO/WYOMING

CITY           SKY/WX    TMP DP  RH WIND       PRES   REMARKS
LAS VEGAS, NV  MOCLDY    42  16  34 SW5       30.16F
ELY, NY        CLOUDY    31  25  78 W5        30.08F WCI  26
ELKO, NV       LGT RAIN  41  31  67 W8        29.98R
POCATELLO, ID  LGT RAIN  36  33  89 SW13      29.92F WCI  27
BURLEY, ID     LGT RAIN  37  35  92 SW12      29.89F WCI  29
FORT BRIDGER,  PTSUNNY   37  26  66 W14       29.98F WCI  28
EVANSTON, WY   CLOUDY    37  27  67 SW17      29.98F WCI  27
ROCK SPRINGS,  CLOUDY    32  22  66 SW8       29.96F WCI  25
KEMMERER, WY     N/A     32  28  86 W12       29.96F WCI  23

$$



USA.gov is the U.S. government's official web portal to all federal, state and local government web resources and services.